Flag for Germany Weather past 2 weeks in Bayreuth, Bavaria, Germany

Now
55 °F

Overcast.


Feels Like: 55 °F
Forecast: 52 / 83 °F
Wind: 1 mph from Northwest

Location: Grafenwoehr

Current Time: Aug 2, 2015 at 8:49:32 AM

Latest Report: Aug 2, 2015 at 7:58 AM


Visibility: N/A

Pressure: 30.06 "Hg

Humidity: 94%

Dew point: 54 °F

Location of BayreuthLocation

Historic Weather in Bayreuth — Graph

°F

Bayreuth temperature yesterday

Maximum temperature yesterday: 70 °F (at 11:58 AM)
Minimum temperature yesterday: 55 °F (at 1:58 AM)
Average temperature yesterday: 63 °F

Past Weeks' High & Low Weather Summary

 TemperatureHumidityPressure
High97 °F (Jul 22, 4:58 PM)100% (Jul 23, 1:58 AM)30.10 "Hg (Jul 23, 1:58 AM)
Low41 °F (Jul 31, 5:58 AM)20% (Jul 22, 5:58 PM)29.63 "Hg (Jul 25, 3:58 AM)
Average66 °F65%29.89 "Hg
* Reported Jul 18 6:58 AM — Aug 2 6:58 AM, Bayreuth, Weather by CustomWeather, © 2015

Note: Actual official high and low records may vary slightly from our data, if they occured in-between our weather recording intervals... More about our weather records

Advertising

Bayreuth weather history for previous 24 hours

 ConditionsComfort  
Time TempWeatherWind HumidityBarometerVisibility
6:58 AM
Sun, Aug 2
54 °FFog.No wind94%30.06 "Hg3 mi
5:58 AM54 °FClear.No wind94%30.05 "HgN/A
4:58 AM52 °FPassing clouds.No wind94%30.03 "HgN/A
3:58 AM54 °FClear.No wind94%30.03 "HgN/A
2:58 AM55 °FPassing clouds.No wind94%30.02 "HgN/A
1:58 AM59 °FOvercast.2 mph82%30.01 "HgN/A
12:58 AM59 °FOvercast.No wind82%30.01 "HgN/A
11:58 PM
Sat, Aug 1
59 °FPartly cloudy.No wind88%30.01 "HgN/A
10:58 PM61 °FMostly cloudy.1 mph83%29.98 "HgN/A
9:58 PM63 °FPartly cloudy.No wind77%29.98 "HgN/A
8:58 PM64 °FOvercast.No wind73%29.98 "HgN/A
7:58 PM64 °FOvercast.1 mph68%29.97 "HgN/A
6:58 PM66 °FOvercast.7 mph64%29.96 "HgN/A
5:58 PM66 °FOvercast.6 mph64%29.98 "HgN/A
4:58 PM68 °FOvercast.3 mph56%29.97 "HgN/A
3:58 PM68 °FMostly cloudy.2 mph53%29.96 "HgN/A
2:58 PM70 °FCloudy.1 mph46%29.96 "HgN/A
1:59 PM68 °FDrizzle. More clouds than sun.2 mph46%29.99 "HgN/A
12:58 PM70 °FScattered clouds.2 mph40%29.96 "HgN/A
11:58 AM70 °FBroken clouds.6 mph40%29.96 "HgN/A
10:58 AM68 °FScattered clouds.2 mph43%29.94 "HgN/A
9:58 AM66 °FPassing clouds.2 mph49%29.93 "HgN/A
8:58 AM64 °FSunny.3 mph49%29.94 "HgN/A
Weather by CustomWeather, © 2015

See weather overviewHow to use our weather pages